Wind_Speed
42 41 42 42 42 42 41 41 41 40 40 39 39 39 39 38 38 37 36 36 35 34 34 34 33 34 34 34 35 35 35 35 35 35 35 35 34 34 34 33 33 32 32 31 31 30 30 29 29 29 29 29 29 29 29 29 29 28 28 27 26 23 21 25 30 28 27 34 34 28 26 25 28 28 25 26 26 26 26 27 27 29 32 31 29 29 27 26
40 40 40 40 40 40 40 40 40 39 39 38 38 38 38 38 37 37 36 35 34 34 33 33 32 32 33 34 34 34 34 34 34 34 34 34 33 33 32 32 31 31 31 31 30 30 30 29 29 29 29 29 29 29 29 29 29 28 27 27 24 22 27 30 29 26 27 32 30 28 28 27 28 28 25 26 27 26 25 27 27 29 33 33 31 28 27 29
38 38 38 38 38 38 38 38 38 38 37 37 37 36 36 36 36 36 35 34 34 33 32 32 31 31 32 32 33 33 33 33 33 33 33 33 32 32 31 30 30 30 30 30 30 30 30 30 29 29 29 29 29 29 29 29 29 28 27 26 24 26 29 29 27 27 29 30 29 29 28 27 28 28 26 26 26 26 26 27 28 30 32 33 32 29 29 31
37 36 36 36 36 36 36 36 36 36 36 35 35 35 35 34 34 34 34 33 33 32 31 31 31 30 31 31 31 32 32 33 32 32 32 32 32 31 31 30 30 30 30 30 30 30 30 29 29 29 29 29 29 28 28 28 27 27 26 25 26 27 27 27 27 28 29 29 29 29 28 28 29 27 26 27 24 25 27 25 27 31 32 32 30 29 29 32
35 35 35 34 34 34 34 34 34 34 34 34 34 33 33 33 33 32 32 32 32 31 30 30 30 29 30 30 31 30 31 32 31 31 31 31 31 30 30 30 31 31 31 31 30 30 29 29 28 28 28 28 27 27 27 27 26 26 25 26 27 26 26 27 27 27 27 28 28 28 28 28 28 26 26 27 23 25 26 23 26 30 32 32 31 29 29 29
34 34 34 33 33 32 32 32 32 32 32 32 32 32 32 31 31 31 31 31 31 30 29 29 29 29 29 29 30 30 31 31 28 29 30 30 30 30 29 29 30 30 31 31 30 29 28 28 27 27 27 26 26 26 25 25 24 24 24 25 26 25 27 27 25 27 27 27 28 28 28 28 27 26 27 27 26 29 28 23 25 30 31 30 30 28 27 27
34 33 33 32 31 30 30 29 29 30 30 30 30 30 30 30 30 30 30 30 30 29 29 28 28 28 29 29 29 29 31 30 28 28 29 29 29 29 29 29 29 29 29 29 29 28 27 27 26 26 25 25 25 24 23 23 23 23 24 25 25 26 27 26 26 26 26 27 29 28 27 27 27 27 28 26 26 31 29 24 28 32 30 29 28 26 25 25
33 33 32 31 30 29 28 28 27 27 28 27 27 27 27 28 28 28 28 29 29 29 28 28 28 28 28 29 29 29 30 29 28 28 27 27 28 28 29 29 29 29 29 29 28 27 27 26 25 24 24 24 23 21 21 21 22 23 24 24 25 25 26 26 26 26 26 27 28 27 26 27 27 27 27 25 26 30 26 24 28 30 30 30 28 25 25 25
33 33 32 31 30 29 28 27 27 27 26 26 25 25 25 25 25 25 26 27 28 29 28 28 28 28 29 29 29 30 29 27 27 26 26 26 26 27 28 28 28 29 29 29 28 27 26 25 24 23 23 22 21 21 21 21 23 23 24 25 25 25 25 26 26 26 26 26 27 27 26 27 28 28 26 25 28 28 22 22 27 28 29 30 27 26 26 26
34 33 32 31 30 30 29 28 28 27 27 26 25 25 24 24 24 24 24 25 26 27 28 28 28 29 29 29 30 30 28 27 27 26 25 25 25 25 26 27 28 28 28 28 27 26 25 24 23 22 22 22 21 21 21 21 22 22 23 24 24 25 25 25 25 26 25 25 26 26 27 27 28 27 24 27 28 24 21 23 25 27 28 28 27 26 25 26
34 33 33 32 31 31 30 29 28 28 27 27 26 25 25 25 25 24 24 24 24 25 26 27 28 29 29 30 31 30 28 29 29 27 27 26 26 26 26 27 27 27 27 27 26 25 24 23 22 22 22 20 20 20 20 21 22 22 23 23 23 24 24 24 25 25 25 25 26 26 28 27 28 26 23 28 26 20 21 24 26 27 28 28 27 26 26 28
34 34 33 32 32 31 31 30 29 28 28 27 27 26 26 27 27 26 26 25 25 24 24 25 26 28 28 29 30 29 28 29 29 28 28 28 28 27 27 27 27 27 26 26 25 24 24 23 22 22 21 19 20 21 20 21 21 22 23 22 23 23 23 24 24 25 24 24 26 26 27 26 28 26 24 30 25 20 24 26 30 30 28 27 26 26 28 28
34 34 33 33 32 32 31 30 29 28 28 28 27 27 27 28 28 28 28 28 27 26 25 24 25 26 28 28 28 28 28 28 28 28 28 27 27 27 27 27 26 26 25 25 24 24 23 22 22 22 21 20 21 21 20 22 21 22 22 21 23 22 22 24 24 24 22 24 25 24 26 25 27 24 23 32 27 21 26 29 33 31 28 27 27 29 30 28
34 34 34 33 33 32 31 30 28 28 28 28 28 27 28 29 29 30 30 30 29 29 27 26 26 26 27 27 26 27 27 27 27 27 27 27 27 27 27 26 26 25 25 25 25 24 24 23 23 23 22 22 22 21 21 22 21 22 21 21 22 17 18 25 23 20 22 25 24 23 24 19 18 19 23 34 28 21 26 29 32 32 29 28 28 31 30 29
34 34 34 33 33 32 31 30 28 27 27 28 28 27 28 28 29 30 30 30 31 30 30 29 29 28 28 27 26 25 26 26 26 26 26 27 27 26 26 25 25 25 25 25 25 25 25 25 25 24 24 23 22 22 22 23 22 22 21 20 22 14 15 27 22 17 24 26 21 22 23 13 6 15 28 32 24 21 26 28 31 31 29 28 29 30 28 28
35 34 34 33 33 32 31 30 28 27 27 27 27 27 27 27 28 29 30 30 30 31 32 31 31 31 31 29 27 26 26 25 25 25 26 26 26 25 24 24 24 24 25 25 25 26 26 26 26 25 25 24 23 23 22 22 22 22 21 17 18 12 13 26 24 20 26 26 21 21 22 16 11 15 33 30 18 19 23 28 31 29 27 28 29 29 27 27
35 34 34 33 33 32 31 30 29 28 27 27 26 26 26 26 26 27 28 29 29 30 31 31 33 33 33 32 30 28 27 27 26 25 25 25 26 25 25 24 24 24 24 25 26 26 26 27 26 26 26 26 25 24 22 21 19 20 22 18 16 15 14 18 23 25 26 24 23 22 22 19 15 16 37 33 18 20 23 28 32 30 28 28 29 29 27 26
34 34 34 33 33 32 31 30 29 28 28 27 26 25 25 24 24 25 25 26 27 28 30 32 33 32 33 35 34 31 29 29 29 28 28 27 28 27 27 26 24 24 25 26 27 27 27 27 27 28 28 27 24 24 22 18 13 13 20 20 17 20 18 16 22 29 26 22 23 23 22 22 21 27 38 36 24 22 24 28 33 33 29 27 29 29 27 27
34 34 33 33 32 32 31 31 30 29 28 27 26 25 24 23 23 23 24 24 24 26 28 30 30 31 34 34 33 31 30 31 31 31 30 29 29 29 28 27 25 25 25 26 27 27 28 27 28 29 27 25 23 25 21 14 13 15 18 19 16 17 16 15 24 31 25 21 23 24 23 24 26 29 32 37 34 27 26 31 35 34 29 28 30 30 28 27
33 33 33 32 32 32 31 31 30 29 29 28 26 25 23 22 22 23 22 22 23 24 26 26 27 31 33 32 30 30 29 30 31 31 31 30 29 28 27 26 25 25 25 26 28 27 27 28 28 27 25 24 25 26 23 21 23 22 21 22 20 20 16 12 22 30 26 23 23 25 25 25 28 26 25 31 34 29 27 31 34 33 31 30 32 33 29 27
33 32 32 31 31 31 31 31 30 30 29 28 26 25 23 22 23 22 20 22 22 23 24 24 26 30 31 29 28 28 28 29 29 29 29 28 27 26 26 24 23 23 24 27 28 26 26 28 27 25 24 26 28 29 29 30 29 24 24 26 23 23 18 12 19 26 26 24 24 25 26 26 28 29 28 23 22 25 28 30 32 31 32 33 33 33 30 28
32 32 31 31 30 31 31 31 30 29 29 28 26 24 22 21 22 21 20 22 22 21 22 22 24 27 28 27 26 28 29 27 27 26 26 27 26 26 24 23 23 22 25 28 26 24 26 28 25 25 27 30 31 30 29 30 27 25 27 26 24 22 16 14 18 21 23 26 25 26 28 28 29 31 32 26 22 23 25 30 31 29 31 32 32 33 32 29
32 31 31 31 30 31 31 31 30 29 29 27 26 24 22 21 21 20 20 21 22 22 22 22 23 25 25 26 27 27 26 24 24 24 24 26 26 25 24 22 22 24 27 26 23 24 25 25 25 28 31 31 29 29 28 29 27 27 26 25 25 21 15 19 23 23 25 25 25 28 29 29 29 29 30 29 30 28 26 29 30 29 31 30 29 33 33 32
31 31 30 30 30 30 30 30 29 29 28 27 25 24 22 21 20 20 20 21 22 22 22 22 22 24 24 24 24 24 23 23 25 24 24 25 26 25 23 21 23 26 26 23 23 25 24 26 29 29 29 27 27 29 29 29 27 27 27 26 26 21 16 17 20 25 27 22 23 27 29 29 28 28 27 28 32 31 26 27 28 29 31 28 28 32 32 31
31 30 30 30 29 29 29 29 28 28 27 26 25 23 22 21 20 20 19 21 23 22 22 23 23 24 23 22 23 25 24 24 24 25 24 25 26 25 23 24 25 26 24 22 25 25 23 29 30 26 26 27 28 29 27 27 27 28 28 27 27 26 24 19 18 25 28 21 21 25 28 28 25 23 24 25 29 30 27 27 27 26 28 28 26 28 30 30
30 29 29 29 29 28 28 29 27 27 26 25 25 23 22 21 20 19 19 20 23 23 23 23 24 24 24 24 25 24 25 24 25 26 24 24 27 26 25 27 25 25 25 24 26 25 25 29 27 23 27 28 27 27 26 26 26 27 27 27 29 29 29 28 24 26 27 20 20 25 27 25 20 18 20 23 25 26 26 26 25 24 26 28 25 24 30 30
29 29 28 28 28 28 28 28 27 27 26 25 25 23 22 21 20 20 19 20 24 25 23 24 25 24 25 26 25 25 26 24 25 27 24 24 28 26 26 27 25 25 26 26 27 26 26 28 25 24 27 26 26 27 25 24 25 25 25 29 29 26 28 30 27 26 24 19 21 27 25 22 21 17 20 23 21 22 25 23 23 24 26 28 25 23 29 31
29 29 29 29 28 27 27 27 27 26 26 25 24 23 22 21 20 20 19 21 26 26 22 23 25 25 25 26 26 28 27 23 24 27 25 26 28 27 26 27 25 25 27 28 25 24 27 28 25 26 27 26 27 26 25 26 25 23 26 29 26 24 27 27 24 24 22 21 24 26 24 24 24 20 21 24 20 20 23 22 21 23 27 29 26 25 28 33
29 29 28 28 27 26 26 26 26 26 25 25 23 22 22 21 21 20 21 24 27 26 23 24 25 25 26 26 26 28 26 25 27 27 25 27 28 26 26 27 26 26 29 28 23 21 27 28 26 27 27 27 27 26 27 27 24 25 30 29 23 23 25 23 21 21 21 23 25 25 23 24 23 20 19 22 24 21 20 22 23 24 28 29 29 29 29 34
28 28 27 26 26 25 25 25 25 24 24 24 22 22 22 21 21 21 23 25 26 25 25 25 25 25 26 26 27 27 27 29 29 25 24 26 27 26 26 27 26 27 29 28 24 25 28 25 25 27 26 27 26 25 27 26 25 29 30 24 21 22 21 20 20 19 21 25 22 19 19 22 23 18 16 20 25 22 20 25 27 26 27 26 27 30 29 35
27 26 25 25 25 24 24 24 24 23 23 22 22 22 22 22 22 23 25 25 25 26 25 25 26 26 26 27 28 28 28 29 28 26 26 26 27 27 28 28 27 27 29 28 26 28 28 24 24 26 25 26 25 24 26 26 24 27 26 21 20 20 19 20 20 21 25 23 18 15 15 23 25 18 17 25 28 24 21 23 25 25 26 24 26 30 32 38
25 24 23 23 23 23 22 22 23 23 22 22 22 22 22 23 23 24 24 23 24 28 28 28 27 25 26 27 28 28 27 28 27 26 26 26 26 27 27 27 27 27 28 25 23 25 27 25 25 26 25 25 24 23 24 24 22 24 24 22 21 19 20 21 20 22 23 18 16 15 16 23 23 16 20 28 31 28 22 19 22 25 25 23 24 29 34 37
21 21 21 21 22 21 21 21 22 22 22 22 22 22 23 24 24 24 23 23 27 30 28 28 26 25 25 24 26 29 27 28 28 26 26 26 26 27 27 26 27 26 23 21 20 23 25 25 25 25 24 23 22 22 24 22 21 22 23 23 23 21 21 21 19 20 20 16 17 20 20 23 20 18 25 29 28 26 21 19 21 23 22 21 21 24 30 33
19 19 20 20 20 20 20 21 21 21 22 22 22 23 24 23 23 23 23 26 31 29 26 27 26 25 24 21 23 28 27 27 27 26 26 26 26 27 27 28 28 26 23 23 21 21 22 22 23 24 23 23 21 22 22 20 19 21 22 24 24 23 21 19 16 17 16 14 16 20 21 20 19 21 27 29 26 24 22 21 21 20 20 20 19 21 23 26
18 18 18 18 19 19 20 21 21 21 22 22 23 23 23 22 23 24 26 29 30 28 27 27 25 23 24 25 25 25 25 26 26 26 26 26 26 27 26 27 27 25 25 26 24 22 22 21 21 22 22 22 21 21 22 20 19 21 25 27 26 23 21 18 17 17 16 15 16 19 18 18 20 24 26 26 24 22 22 21 20 19 19 20 19 18 18 21
17 18 18 18 19 19 20 20 21 21 21 22 22 23 23 24 25 26 27 28 27 27 27 25 24 24 23 25 26 25 25 25 25 26 26 25 25 25 26 27 26 25 25 25 24 24 23 20 20 22 22 21 20 20 24 23 21 22 25 28 27 22 19 19 20 20 18 19 18 17 18 18 21 24 24 23 21 21 21 21 20 20 19 19 18 16 17 21
18 18 18 19 19 19 20 20 20 21 21 22 22 23 24 25 26 25 25 26 25 26 25 21 22 24 21 20 22 24 26 26 25 25 24 24 24 24 25 26 26 26 25 25 23 24 25 22 22 23 21 21 21 22 25 26 26 25 23 23 24 22 21 23 22 20 19 20 20 19 20 20 22 23 21 18 18 20 21 20 21 21 19 19 20 20 19 20
18 18 18 18 18 19 19 20 20 21 22 22 22 23 24 24 24 24 25 26 26 26 25 24 24 26 25 20 17 20 25 27 26 24 22 22 23 23 24 24 25 25 26 26 25 25 25 23 24 24 22 22 24 24 24 27 29 28 24 22 23 21 23 25 23 21 20 19 19 19 19 21 24 24 19 16 17 20 21 21 21 21 20 20 19 20 21 20
17 18 18 18 18 19 20 20 21 21 22 22 22 23 24 23 23 23 24 25 25 25 26 28 28 26 26 23 19 21 25 26 26 24 22 22 23 23 23 23 24 25 26 26 26 26 25 22 22 23 21 22 24 24 26 27 29 29 27 24 23 21 22 22 22 24 21 18 19 19 18 23 25 23 19 16 16 19 22 23 22 21 22 21 16 13 17 18
17 17 18 18 19 19 19 20 20 21 21 21 22 23 23 23 22 22 23 24 25 26 27 28 27 25 26 26 25 24 23 24 26 25 23 24 24 23 24 25 25 25 25 25 25 25 25 24 21 20 22 24 24 23 25 26 27 29 30 27 24 23 23 22 23 24 22 20 20 17 18 23 23 19 18 15 14 18 22 24 22 21 23 24 20 15 15 17
17 18 18 18 18 18 19 19 19 20 20 20 21 22 21 21 21 22 23 23 24 26 26 26 26 27 28 27 27 26 23 24 27 25 23 24 24 24 26 26 24 24 24 25 25 24 25 25 22 22 25 24 22 22 24 26 26 27 28 28 28 26 24 22 24 23 21 19 16 14 18 21 19 17 16 13 14 18 22 23 21 20 23 27 26 23 21 20
17 18 17 17 17 18 18 18 18 18 19 19 20 21 20 20 20 20 22 22 23 24 24 25 26 26 26 25 26 26 25 26 27 26 24 24 26 27 26 25 25 25 23 22 24 24 24 25 25 26 23 18 20 24 25 27 27 26 25 26 28 29 26 24 24 24 22 19 17 19 22 19 14 14 14 13 14 18 22 23 21 20 24 28 30 28 26 25
17 17 17 17 17 18 18 16 15 16 17 18 18 18 18 19 19 19 20 21 22 23 23 24 25 25 26 26 26 26 26 27 28 28 26 26 28 28 26 26 26 25 24 22 23 26 26 24 25 26 23 19 23 28 26 24 27 28 26 25 26 29 27 25 26 26 24 22 21 20 21 20 15 12 13 12 13 17 21 23 23 22 23 25 29 30 28 27
17 16 17 17 18 17 16 15 13 15 16 16 15 16 16 18 18 19 19 20 21 22 23 24 24 25 25 26 26 26 26 25 27 28 28 28 30 27 25 27 26 25 27 26 25 25 24 23 24 26 26 24 24 26 26 25 26 27 27 28 29 30 28 26 27 26 23 22 20 16 16 19 16 13 14 14 14 16 20 22 22 23 22 23 25 27 27 27
17 17 16 17 17 16 16 15 14 15 16 14 14 15 16 16 17 18 18 19 20 21 21 22 23 23 24 24 25 25 25 25 25 26 27 30 31 29 26 27 29 30 29 26 25 24 23 24 26 27 27 26 25 26 28 27 25 26 29 31 31 30 29 28 27 25 23 22 22 20 19 20 16 13 14 15 15 16 17 19 19 20 21 21 22 22 22 23
17 17 15 15 16 15 16 16 14 14 15 14 15 15 15 15 15 16 17 17 19 20 20 20 21 22 23 24 24 24 24 25 24 24 25 25 26 29 30 29 31 32 28 26 28 26 25 27 28 29 30 29 28 29 29 27 26 27 30 31 30 30 30 28 27 28 27 24 23 24 24 21 16 13 13 13 15 16 16 17 17 16 17 18 18 18 18 20
16 15 14 15 15 14 14 15 14 13 14 14 14 14 13 14 14 14 16 17 17 18 18 19 20 21 22 23 23 23 24 24 24 24 25 23 22 27 32 31 30 31 30 30 31 28 28 29 29 30 32 31 29 27 26 27 27 28 30 30 29 29 28 26 28 30 29 26 24 24 23 19 16 15 14 13 14 15 16 16 16 15 16 16 17 18 19 20
16 15 15 14 14 14 13 13 13 13 13 13 13 13 13 13 13 14 15 16 16 17 19 19 19 20 21 22 22 23 23 23 25 24 25 26 26 27 31 32 31 31 32 33 33 32 31 29 28 29 32 32 30 28 27 28 27 27 27 26 25 26 26 27 29 30 29 28 28 26 21 17 16 16 15 15 14 14 15 16 16 16 16 17 18 20 21 22
17 15 14 14 13 13 13 12 11 12 12 12 12 12 12 12 13 14 15 15 17 18 19 19 19 20 21 21 21 22 22 24 26 26 26 28 28 26 28 31 31 31 32 33 33 32 31 28 26 26 29 30 29 28 28 29 30 30 29 26 25 26 26 27 29 29 30 31 30 28 24 20 17 15 14 13 15 16 16 16 16 16 16 16 17 19 21 22
17 14 13 14 13 12 12 12 11 12 12 12 12 11 11 12 13 14 15 15 17 18 19 19 19 20 21 21 21 21 22 23 24 26 29 30 29 28 29 29 29 31 32 32 32 31 30 29 25 23 25 28 28 29 29 30 32 33 31 29 28 28 28 27 27 28 31 32 30 28 26 23 20 18 16 14 15 16 16 16 16 16 17 16 16 17 19 20
16 13 14 14 12 11 12 12 12 12 11 11 11 11 11 12 12 13 14 16 17 18 20 20 19 19 21 21 22 22 22 23 23 25 28 30 31 31 29 27 27 29 30 31 30 30 30 30 27 25 25 26 28 29 29 30 32 32 31 31 31 31 30 28 27 28 31 32 30 28 27 25 23 22 20 18 17 17 17 16 17 17 18 18 18 18 19 19
16 15 15 14 13 12 12 11 11 11 10 10 10 10 11 11 11 12 13 14 15 16 17 18 17 19 21 23 24 25 24 24 24 24 26 28 30 29 28 27 28 28 28 29 28 29 30 29 30 29 28 26 28 30 29 29 30 30 31 34 35 33 32 31 30 30 32 32 31 30 28 26 25 23 21 20 19 19 18 18 18 18 19 19 20 20 20 20
Wind_Direction
245 246 245 245 245 244 244 244 244 244 243 242 242 243 243 244 244 244 244 244 245 245 246 247 248 249 250 250 250 250 250 250 249 248 248 247 247 246 246 245 244 243 243 242 242 243 245 246 248 249 249 249 249 250 249 249 249 249 248 247 248 246 238 239 247 251 250 257 268 274 273 267 267 271 269 264 259 254 254 254 251 249 254 252 248 248 248 245
243 244 244 244 243 243 243 243 243 243 243 242 241 242 242 243 243 243 243 243 244 244 245 246 247 248 248 249 249 249 249 248 247 247 246 246 246 246 245 244 242 241 241 241 242 243 245 247 248 248 248 248 248 249 249 248 249 249 248 249 246 240 241 246 252 259 258 260 269 272 269 268 267 269 268 263 261 257 252 253 253 252 256 255 251 246 240 235
241 242 242 242 242 242 241 242 242 241 241 241 241 241 241 241 241 242 242 242 243 243 244 245 245 246 247 248 248 248 248 247 247 246 245 245 244 244 243 243 243 241 241 241 242 244 245 246 247 247 247 247 247 248 248 248 249 248 248 249 243 242 250 254 256 259 259 263 268 269 270 269 267 266 265 262 261 258 251 251 255 256 257 254 251 246 238 234
238 240 240 241 240 240 240 240 240 240 240 240 240 239 239 240 240 241 241 241 242 242 243 244 244 244 245 246 247 247 247 246 246 245 245 244 243 241 241 241 241 242 242 242 243 244 245 245 246 247 247 247 247 248 248 249 249 249 249 248 247 251 256 256 257 259 261 264 265 266 268 266 265 265 263 261 258 256 252 249 252 258 258 253 250 246 239 234
235 237 238 238 238 238 238 238 238 238 238 238 238 237 238 238 239 240 240 241 241 241 242 242 242 243 243 244 245 245 245 245 245 245 244 243 242 241 239 238 238 239 241 242 243 243 244 244 245 245 246 247 247 248 249 250 250 252 251 251 253 257 257 257 259 260 261 263 264 264 264 263 265 265 261 258 250 249 251 248 252 259 257 250 247 244 238 236
232 233 235 235 235 235 235 235 235 236 235 235 235 236 236 237 238 238 239 239 240 240 240 240 241 241 242 242 243 243 244 245 244 243 242 241 240 240 239 238 237 238 239 241 242 243 243 243 243 244 245 246 247 248 250 251 252 254 254 255 257 258 258 260 261 261 262 263 263 263 263 264 265 262 259 257 250 250 252 248 251 258 256 245 240 242 242 246
230 230 231 231 232 231 231 231 231 232 232 232 232 233 234 235 236 237 238 238 238 238 238 239 239 239 240 241 241 241 242 243 242 242 242 241 240 239 239 238 238 239 239 240 241 241 241 241 241 242 244 246 247 250 252 254 255 256 257 257 258 259 261 262 261 262 262 262 262 262 263 263 262 260 259 258 254 255 257 251 250 255 255 247 243 247 249 253
227 228 228 228 227 227 226 225 226 226 227 227 228 229 231 233 234 235 237 237 238 237 237 237 238 238 239 240 240 241 241 242 242 242 242 241 240 239 239 238 238 238 239 239 239 239 239 239 239 240 242 245 247 250 253 255 256 257 258 259 260 261 262 262 261 260 260 260 261 262 262 261 261 260 260 259 255 257 260 255 251 251 251 251 250 249 249 253
226 225 225 224 223 222 221 221 221 222 222 223 224 226 228 229 231 233 235 236 237 237 237 237 237 237 238 239 240 240 241 241 241 241 242 242 241 240 239 238 237 237 237 237 237 237 237 237 238 239 242 245 247 250 252 254 257 259 260 261 262 262 262 262 261 259 259 259 260 260 260 260 260 260 260 258 255 259 260 253 250 249 249 251 249 245 249 255
226 224 223 222 221 220 219 219 221 222 223 224 225 227 228 229 230 231 232 234 236 237 237 236 236 237 238 238 239 240 239 239 239 239 240 241 241 240 239 238 237 236 236 235 236 235 236 237 238 240 242 246 248 251 255 257 260 263 263 264 264 263 263 262 261 259 258 258 258 259 260 259 260 260 260 257 258 260 255 249 248 247 247 250 249 249 253 254
225 224 222 221 220 220 219 220 223 225 227 229 230 231 233 233 233 232 232 233 234 235 236 236 236 237 237 238 239 240 239 239 239 239 240 240 241 240 239 239 238 237 236 236 236 235 236 237 239 240 243 247 251 256 258 261 263 264 264 265 264 263 263 262 260 259 258 258 258 258 258 259 261 259 254 256 259 255 246 243 246 246 247 249 250 251 250 250
225 223 222 221 220 220 220 222 225 228 232 234 236 237 239 239 238 237 236 235 235 235 235 235 236 236 237 237 238 239 238 239 239 239 238 238 238 238 237 237 237 237 237 237 237 237 237 237 239 241 244 249 253 257 259 261 263 263 264 265 265 265 263 262 261 261 259 258 259 259 260 260 261 260 256 257 255 247 247 247 249 252 251 249 246 246 246 247
224 223 222 221 220 220 221 223 226 231 235 238 240 243 244 245 244 243 240 239 238 237 236 236 236 236 236 237 237 237 237 237 237 237 236 236 236 236 236 235 235 236 236 237 237 237 238 238 239 242 245 249 252 256 259 261 261 262 265 265 266 268 267 263 260 263 261 259 260 258 258 258 262 266 261 260 253 243 250 252 253 254 251 248 244 245 246 247
223 222 222 222 221 220 221 223 227 232 237 240 244 246 247 248 248 247 245 243 241 239 238 237 236 236 236 236 235 235 235 235 235 235 235 235 235 236 236 236 237 238 238 238 238 238 239 238 240 241 244 247 252 256 257 259 260 262 264 264 266 268 269 265 261 263 260 257 260 257 253 253 275 283 262 259 257 243 248 255 256 253 248 248 246 246 247 250
222 221 222 222 221 221 220 222 226 232 238 242 245 247 249 249 249 249 247 245 243 241 240 239 238 237 238 237 235 234 234 234 234 235 235 236 236 237 237 239 240 241 241 241 241 241 241 241 242 242 244 248 251 253 254 258 260 261 262 264 268 261 255 266 263 255 256 258 259 259 254 232 233 264 256 261 263 246 249 255 255 252 248 247 247 249 251 254
220 220 221 221 222 221 221 222 225 231 237 242 245 247 248 249 249 248 247 245 243 242 240 240 239 238 239 239 237 236 235 234 234 234 235 236 237 237 238 239 240 242 242 244 244 245 245 245 246 246 248 248 248 251 253 257 260 264 265 261 265 251 238 265 267 250 254 262 258 254 252 224 181 243 260 265 257 242 249 251 251 250 244 242 245 251 254 256
218 219 220 221 221 221 221 221 223 229 235 240 243 245 247 247 247 247 245 243 241 240 240 239 239 240 240 240 238 237 236 236 235 235 236 237 238 238 239 240 241 244 246 247 248 248 249 249 249 249 249 247 248 251 252 257 264 267 265 253 249 241 223 252 268 257 253 258 257 252 249 229 179 223 257 263 255 243 247 251 254 249 240 243 249 252 254 255
217 218 218 219 221 221 221 221 223 227 233 238 242 244 246 247 247 246 244 242 240 239 238 238 239 239 239 239 239 238 238 239 239 238 238 240 241 242 243 244 245 247 249 251 250 250 251 251 251 250 249 249 250 253 252 255 258 256 262 257 247 252 246 237 254 263 259 254 255 254 252 238 203 212 245 262 265 253 249 251 253 250 243 244 250 253 254 253
215 217 217 218 220 221 221 221 223 226 231 236 240 243 246 247 247 245 242 240 238 237 236 237 238 238 239 239 240 239 239 241 242 242 241 242 244 245 247 247 247 248 249 250 250 250 250 250 250 250 251 252 250 252 248 233 228 234 252 252 236 246 257 241 246 262 266 255 251 252 250 244 231 227 246 264 264 254 249 249 253 256 250 243 249 257 258 257
215 216 217 218 219 221 222 223 223 226 230 235 239 243 245 248 248 246 243 241 237 235 235 234 235 238 239 238 238 239 238 239 241 242 243 243 244 245 247 247 247 247 248 249 248 248 250 250 251 251 251 250 247 247 239 228 240 248 249 249 243 239 240 242 254 262 266 256 248 250 248 241 240 234 239 259 262 251 247 251 256 259 255 253 258 261 260 258
214 216 217 218 219 221 222 224 225 227 230 235 239 243 246 248 249 247 244 241 238 235 235 232 231 235 238 238 236 237 237 237 238 240 242 243 243 243 244 244 245 245 245 247 247 247 249 250 251 251 249 246 243 243 241 243 252 253 248 250 252 249 242 244 261 262 261 258 249 248 248 242 241 236 231 243 257 250 246 252 257 258 255 255 257 259 260 259
213 215 216 218 219 220 222 224 226 228 231 235 240 245 247 248 250 248 243 241 239 236 234 231 230 234 237 237 235 234 236 236 237 237 240 242 241 240 239 239 241 241 242 245 246 247 248 250 251 249 246 244 246 248 249 252 252 247 249 252 248 247 243 241 258 262 258 257 249 245 246 242 241 242 238 236 246 255 253 252 255 256 255 252 252 258 262 257
213 216 217 218 219 221 223 224 226 229 232 236 241 246 249 250 251 250 245 241 238 235 233 230 230 233 234 235 235 236 237 238 238 235 235 239 240 239 237 236 238 240 241 243 245 245 246 249 248 245 246 249 251 251 249 249 249 247 248 249 246 243 241 246 258 265 261 257 249 244 247 247 245 248 247 241 247 260 259 255 255 255 257 257 255 259 262 254
213 215 217 218 220 222 224 226 228 230 234 238 243 248 251 251 251 249 245 242 239 235 233 231 229 232 234 234 236 237 234 234 236 232 229 233 237 237 236 232 233 237 240 240 242 243 243 245 244 245 250 252 249 248 248 248 248 248 245 246 245 237 232 241 251 262 267 262 252 249 251 254 253 252 250 246 251 259 258 255 256 254 256 258 255 259 263 253
214 215 217 218 220 223 226 228 229 232 236 240 245 248 251 251 249 247 244 242 242 236 232 231 229 230 233 232 233 235 233 231 234 233 227 228 233 233 232 231 230 235 239 237 239 241 240 244 247 248 251 249 248 249 250 249 246 246 248 248 246 238 235 244 252 262 267 266 262 258 254 256 262 263 259 252 252 256 253 250 253 254 256 256 252 257 262 253
215 215 217 219 221 224 227 230 231 234 238 241 246 248 250 249 246 244 241 240 243 238 231 231 230 229 230 230 230 233 234 230 231 234 228 226 231 231 230 232 230 233 237 235 238 238 236 246 251 248 248 249 250 250 248 248 246 246 247 246 246 244 245 254 259 259 260 261 261 260 255 253 257 264 261 251 247 251 252 246 245 249 253 254 249 250 258 255
216 216 218 220 223 225 228 231 233 235 239 241 245 246 247 246 242 241 237 235 241 239 231 229 231 230 230 231 229 230 233 232 232 236 230 226 231 230 230 234 231 232 237 237 240 239 237 248 254 247 248 249 247 248 247 247 246 242 242 244 246 247 248 253 256 255 255 251 249 255 259 253 247 246 248 248 241 238 246 247 240 239 246 250 246 242 252 254
219 220 222 224 225 227 229 232 233 235 238 239 242 244 244 243 239 237 231 228 236 239 232 229 230 229 230 232 230 229 232 230 230 233 227 225 229 229 229 233 232 231 237 239 241 246 244 245 249 246 246 247 245 246 245 244 241 235 239 246 246 243 246 250 250 251 253 248 246 253 260 257 250 243 247 255 251 238 242 250 244 237 239 245 243 235 239 248
222 223 225 226 227 228 229 230 232 233 235 237 240 241 241 239 235 232 227 227 236 240 235 231 230 227 228 230 230 231 230 227 227 229 226 226 229 228 228 231 231 230 235 237 233 242 248 244 246 248 247 246 246 244 244 244 236 232 242 249 245 241 244 247 246 248 252 251 248 249 255 261 257 247 249 259 262 254 243 240 238 234 235 237 237 233 231 241
222 223 224 225 226 226 226 228 230 231 233 235 237 238 237 236 231 227 225 228 234 237 235 233 231 227 226 228 230 230 228 228 228 227 224 224 226 226 227 229 230 231 236 237 227 232 247 249 248 250 248 247 246 243 245 244 234 236 248 251 242 241 242 241 242 242 245 251 255 250 249 259 258 244 238 244 251 254 241 234 235 235 238 237 237 237 232 237
221 221 221 221 223 224 224 227 229 231 233 233 233 234 232 231 227 224 226 229 233 234 233 233 231 227 225 226 229 229 229 230 228 225 223 223 223 224 225 227 228 230 235 238 230 235 249 253 250 251 247 245 244 241 245 246 241 244 251 245 235 238 239 239 241 240 243 251 266 265 243 249 256 246 233 234 239 246 245 247 244 237 239 237 236 239 236 238
216 217 217 219 220 223 224 227 228 230 231 230 230 230 228 228 225 224 226 228 232 232 231 231 231 228 225 225 229 229 228 231 229 225 224 224 225 225 227 229 229 230 237 244 240 241 251 252 249 249 245 243 241 239 243 244 241 243 243 233 226 230 236 238 238 243 251 253 256 254 235 240 250 245 237 237 239 243 245 253 249 236 235 234 233 234 233 237
212 214 217 218 220 222 224 225 226 228 229 228 228 227 226 226 223 223 222 222 228 231 230 232 231 229 226 225 230 229 227 230 229 224 224 223 223 225 224 227 229 228 233 244 245 244 249 251 250 248 245 243 238 236 240 241 238 239 235 226 221 224 234 240 236 239 253 254 245 245 236 237 244 240 241 244 246 247 244 246 247 241 239 237 234 234 231 233
212 214 217 218 220 221 223 224 225 226 226 226 226 226 226 226 224 222 221 223 229 230 230 231 229 228 224 219 226 227 223 227 228 224 224 223 222 224 223 224 227 224 222 228 234 239 244 247 250 251 246 243 237 233 237 237 234 233 226 222 223 224 228 238 241 238 246 252 250 250 245 246 251 247 246 251 255 253 245 240 241 243 247 245 244 244 235 230
212 214 216 217 219 220 222 224 224 224 225 224 225 225 225 223 222 220 221 224 228 228 228 228 227 226 222 220 225 224 219 223 228 225 224 224 223 224 225 227 229 226 223 225 227 232 238 240 246 248 245 243 236 229 231 227 225 227 221 218 223 227 228 234 238 233 230 235 241 247 249 250 250 248 250 254 256 254 246 239 238 242 246 246 247 250 241 232
212 213 214 216 217 219 221 223 224 223 224 224 224 224 223 221 221 221 223 226 226 226 227 227 227 224 221 224 226 221 216 220 226 227 225 225 225 224 225 228 228 226 224 226 226 229 235 237 241 242 242 243 234 226 227 219 215 223 223 220 223 227 231 236 239 235 230 235 241 246 253 256 254 251 251 253 252 248 243 239 239 241 240 238 237 236 233 232
212 213 213 215 217 219 222 223 223 223 224 225 224 224 224 225 225 225 226 226 224 224 222 220 222 219 213 221 226 221 218 219 221 224 225 226 227 226 227 229 229 226 223 223 224 227 230 232 238 240 240 241 232 225 227 220 214 219 220 219 223 228 231 233 237 239 237 241 246 250 255 258 259 256 252 249 244 238 237 237 236 238 237 232 228 220 213 217
211 213 214 216 218 220 223 224 224 224 225 225 225 226 227 228 227 225 225 224 223 223 218 214 218 215 206 208 217 221 221 219 221 221 219 222 224 223 224 228 230 229 224 221 221 224 226 229 238 242 240 240 235 228 227 224 219 219 219 214 213 221 232 235 238 240 239 241 246 250 252 252 254 255 254 250 242 233 232 234 232 233 233 228 228 223 212 210
210 213 215 217 219 221 223 224 225 225 225 225 225 226 227 227 226 224 223 223 222 220 217 218 220 218 211 206 208 219 220 216 218 220 217 218 222 222 221 221 225 227 225 223 223 223 223 225 235 243 239 236 236 229 227 228 223 221 223 220 214 218 227 232 236 238 237 241 244 246 248 248 249 252 255 253 242 231 231 232 231 231 230 227 230 226 216 216
211 214 217 218 219 220 221 222 223 224 225 225 225 226 226 226 226 223 222 222 221 220 219 221 220 217 215 211 211 219 219 211 212 214 213 216 219 221 220 217 218 222 223 223 223 224 224 223 226 236 237 234 235 231 228 231 230 226 226 227 225 226 228 232 237 237 232 231 238 243 248 250 250 251 256 254 238 229 232 233 232 231 230 228 229 225 216 220
212 215 216 218 219 219 219 220 221 222 224 225 226 226 226 225 224 223 223 222 223 223 222 223 221 218 217 214 213 219 218 210 210 211 211 214 218 220 221 218 216 219 222 221 221 222 224 221 218 227 237 236 237 235 229 228 229 227 227 227 228 230 231 233 236 238 233 228 234 241 243 248 252 250 254 254 237 231 234 235 233 230 228 226 227 225 219 219
212 214 214 214 215 216 217 217 219 222 223 226 227 226 224 224 224 223 223 222 223 224 223 223 223 222 221 216 214 218 219 212 209 211 211 211 216 220 220 219 217 218 219 220 221 222 222 221 218 224 234 234 229 230 228 226 227 225 224 226 228 229 230 232 235 236 234 231 234 238 241 248 252 246 249 250 238 230 232 235 234 231 231 229 226 223 219 219
210 212 212 210 211 213 214 214 218 221 221 224 226 225 223 223 222 221 221 221 221 222 223 223 222 222 222 218 214 215 218 215 210 211 213 213 218 223 222 220 220 219 217 218 221 220 218 218 218 222 228 226 225 229 229 229 230 229 228 229 230 229 228 234 239 236 231 233 234 234 243 253 251 245 248 245 235 231 232 237 237 236 238 237 231 224 218 220
206 207 208 207 207 210 209 208 216 222 222 222 223 221 221 222 221 219 220 220 221 221 222 223 223 223 223 222 219 216 216 216 213 213 215 217 220 223 221 219 218 216 215 215 219 219 216 217 219 221 223 221 224 230 230 228 230 231 231 230 229 228 226 232 240 239 233 236 238 235 245 253 250 244 242 236 232 232 234 239 241 241 244 246 242 232 223 223
203 204 204 205 205 206 205 204 212 220 222 223 222 219 219 220 218 217 218 220 220 220 221 222 223 225 225 224 224 221 219 217 215 215 218 222 225 226 224 220 218 218 214 214 221 222 218 219 220 220 222 219 219 226 228 226 226 229 230 229 228 228 227 230 239 243 238 237 237 242 251 252 246 241 236 231 231 232 236 242 245 246 247 247 247 243 234 230
201 202 201 203 204 206 207 209 214 218 219 222 223 220 217 216 215 215 218 222 221 220 222 222 223 224 226 226 226 224 222 219 215 214 216 222 232 233 228 224 223 221 217 217 222 222 221 224 223 221 223 220 220 226 230 229 228 229 231 231 231 231 228 229 236 240 240 236 235 244 250 247 242 239 231 229 231 231 236 244 248 249 248 247 246 246 243 240
195 196 195 199 204 208 209 212 216 217 215 216 218 219 218 219 220 218 221 226 227 225 225 225 226 226 226 228 228 227 226 221 217 217 216 218 230 231 226 226 225 222 218 219 220 221 224 227 224 225 228 226 226 230 232 232 233 233 234 234 235 235 231 231 234 236 239 240 240 245 246 241 245 244 232 228 230 227 228 236 242 246 247 247 247 244 243 243
193 194 193 195 200 205 207 208 211 213 214 215 218 222 224 225 227 227 227 230 231 231 230 229 229 229 228 229 228 227 227 223 219 219 219 221 228 229 226 226 226 223 221 221 221 223 226 225 223 227 231 231 233 235 231 232 234 233 234 235 236 235 233 233 234 237 242 245 246 248 248 249 254 246 230 228 229 223 224 230 234 239 242 244 244 243 242 241
192 192 193 195 197 201 203 205 208 211 214 217 220 223 226 227 230 230 230 232 232 233 234 234 233 232 230 229 226 224 224 223 221 220 220 222 227 229 227 225 223 223 225 224 223 226 229 227 226 230 231 230 232 235 233 236 238 236 237 238 236 233 233 233 234 238 243 247 249 251 253 257 255 240 231 236 236 231 232 235 237 238 240 243 245 245 244 243
193 190 189 194 197 199 200 203 208 212 215 217 219 222 225 228 231 233 232 233 232 232 232 231 232 232 230 228 227 225 223 223 222 222 223 225 227 229 231 228 221 221 225 225 225 227 228 229 228 230 233 231 230 232 233 237 242 241 240 241 239 236 236 236 236 239 243 246 249 251 253 255 253 246 246 249 246 242 241 240 241 241 241 244 246 246 246 245
193 187 185 190 195 198 202 204 208 212 214 216 219 224 227 229 233 236 236 235 233 233 231 229 229 230 228 227 228 227 226 225 225 224 225 227 229 231 234 231 222 220 222 224 226 226 227 232 232 230 235 236 233 233 234 239 244 245 242 241 240 239 239 240 239 241 245 247 249 250 252 254 254 252 251 248 245 246 245 243 242 241 242 244 245 247 248 247
186 183 185 192 194 195 202 206 207 210 212 214 221 226 228 232 235 237 238 235 234 233 229 225 223 223 224 227 228 228 228 229 229 229 230 231 232 234 236 234 226 220 218 220 225 225 225 229 230 230 235 239 235 234 236 240 247 249 244 240 240 241 241 241 240 241 244 246 248 250 252 254 255 255 253 250 246 246 246 246 244 243 244 246 246 247 249 249
Height
5732 5734 5735 5736 5738 5740 5741 5743 5745 5746 5748 5749 5751 5753 5755 5756 5757 5758 5760 5761 5762 5763 5764 5766 5767 5769 5770 5772 5773 5775 5777 5778 5779 5781 5782 5783 5785 5786 5787 5788 5789 5790 5791 5792 5793 5795 5796 5797 5798 5799 5800 5801 5802 5803 5804 5805 5806 5807 5808 5809 5810 5812 5812 5811 5810 5811 5812 5808 5808 5812 5813 5814 5812 5812 5814 5815 5815 5816 5816 5816 5816 5816 5815 5815 5816 5817 5817 5818
5727 5729 5731 5732 5734 5735 5737 5739 5740 5742 5744 5745 5747 5749 5751 5752 5753 5755 5756 5757 5759 5760 5761 5762 5764 5765 5767 5768 5770 5772 5773 5775 5776 5777 5779 5780 5782 5783 5784 5785 5786 5788 5789 5790 5791 5792 5793 5794 5795 5797 5798 5798 5799 5800 5801 5802 5803 5804 5805 5807 5808 5807 5807 5807 5807 5808 5809 5806 5807 5809 5809 5810 5810 5810 5811 5812 5812 5813 5814 5813 5813 5813 5813 5812 5813 5814 5815 5815
5723 5725 5727 5728 5730 5731 5733 5734 5736 5738 5740 5742 5743 5745 5747 5748 5750 5751 5752 5753 5755 5756 5757 5758 5760 5762 5763 5765 5767 5768 5770 5771 5773 5774 5776 5777 5778 5780 5781 5783 5784 5785 5786 5787 5788 5789 5790 5792 5793 5794 5795 5796 5797 5797 5798 5799 5800 5801 5803 5804 5804 5803 5803 5804 5805 5806 5805 5805 5806 5806 5807 5808 5807 5807 5809 5809 5809 5810 5811 5811 5811 5810 5809 5809 5809 5811 5812 5812
5719 5721 5723 5724 5726 5727 5729 5731 5732 5734 5736 5738 5740 5741 5743 5744 5746 5747 5748 5750 5751 5752 5754 5755 5757 5758 5760 5762 5764 5765 5767 5768 5770 5771 5773 5774 5775 5777 5779 5780 5782 5783 5784 5785 5786 5787 5788 5789 5790 5791 5792 5793 5794 5795 5796 5797 5798 5798 5800 5800 5799 5800 5801 5802 5802 5803 5802 5803 5803 5804 5804 5804 5803 5805 5806 5806 5807 5807 5807 5809 5808 5807 5805 5804 5806 5807 5808 5809
5715 5717 5719 5721 5722 5724 5725 5727 5729 5731 5733 5735 5736 5738 5739 5741 5742 5744 5745 5746 5748 5749 5750 5752 5754 5755 5757 5759 5760 5763 5764 5765 5767 5769 5770 5771 5773 5774 5776 5777 5779 5780 5782 5783 5784 5784 5785 5787 5788 5789 5790 5790 5791 5792 5793 5794 5795 5795 5797 5797 5796 5798 5798 5798 5799 5800 5800 5800 5800 5801 5801 5801 5801 5803 5803 5803 5804 5804 5804 5806 5806 5804 5802 5801 5803 5804 5806 5808
5711 5713 5715 5717 5719 5720 5722 5724 5726 5728 5730 5731 5733 5734 5736 5737 5739 5740 5742 5743 5744 5746 5747 5749 5751 5752 5754 5756 5758 5760 5761 5762 5765 5766 5767 5769 5770 5772 5773 5775 5776 5777 5779 5780 5781 5782 5783 5784 5785 5786 5787 5788 5789 5790 5790 5791 5792 5793 5793 5794 5794 5795 5795 5795 5797 5797 5797 5797 5797 5798 5798 5798 5799 5799 5799 5800 5801 5800 5801 5805 5804 5802 5800 5799 5801 5803 5806 5808
5707 5709 5711 5713 5715 5717 5719 5721 5723 5725 5726 5728 5729 5731 5732 5734 5735 5737 5739 5740 5741 5743 5744 5746 5748 5749 5751 5753 5755 5757 5757 5759 5762 5763 5764 5766 5767 5769 5771 5772 5774 5775 5776 5777 5779 5780 5781 5782 5783 5784 5785 5786 5786 5787 5788 5789 5790 5790 5790 5791 5791 5792 5792 5793 5794 5794 5794 5794 5794 5795 5795 5796 5796 5796 5796 5797 5798 5797 5798 5803 5802 5800 5800 5800 5799 5802 5804 5806
5703 5705 5707 5709 5712 5714 5716 5718 5720 5722 5723 5725 5726 5728 5729 5731 5732 5734 5736 5737 5739 5740 5741 5743 5744 5746 5748 5750 5752 5753 5755 5757 5759 5760 5762 5763 5765 5767 5768 5769 5771 5772 5774 5775 5776 5777 5778 5779 5780 5781 5782 5783 5784 5785 5786 5786 5787 5787 5787 5788 5788 5789 5789 5790 5791 5791 5791 5791 5791 5792 5793 5793 5793 5793 5794 5795 5795 5794 5796 5800 5798 5797 5799 5798 5798 5800 5802 5803
5699 5701 5704 5706 5708 5710 5712 5715 5717 5719 5720 5722 5723 5725 5726 5728 5729 5731 5733 5734 5736 5737 5738 5740 5741 5743 5745 5747 5749 5750 5752 5755 5756 5758 5760 5761 5763 5764 5766 5767 5768 5769 5771 5772 5774 5775 5776 5777 5778 5779 5780 5780 5782 5782 5783 5783 5784 5784 5785 5785 5786 5786 5787 5787 5788 5788 5789 5789 5789 5789 5790 5790 5790 5790 5792 5793 5792 5792 5795 5796 5794 5794 5796 5796 5797 5799 5800 5801
5696 5698 5700 5702 5705 5707 5709 5711 5714 5715 5717 5719 5720 5722 5723 5725 5726 5728 5730 5731 5732 5734 5735 5737 5738 5740 5742 5744 5746 5747 5750 5752 5753 5755 5757 5759 5760 5762 5763 5764 5766 5767 5768 5770 5771 5772 5773 5774 5775 5776 5777 5778 5779 5779 5780 5781 5781 5782 5782 5783 5783 5784 5784 5785 5785 5786 5786 5786 5787 5787 5787 5787 5787 5788 5790 5790 5789 5792 5793 5792 5791 5792 5794 5795 5795 5796 5798 5799
5692 5694 5697 5699 5701 5704 5706 5708 5710 5712 5714 5716 5717 5719 5720 5722 5724 5725 5727 5728 5730 5731 5732 5734 5735 5737 5739 5741 5743 5745 5747 5749 5750 5753 5754 5756 5757 5759 5760 5762 5763 5765 5766 5767 5769 5770 5771 5772 5773 5774 5774 5776 5776 5777 5778 5778 5779 5780 5780 5780 5781 5781 5782 5782 5783 5783 5784 5784 5784 5784 5784 5784 5785 5786 5788 5786 5787 5790 5790 5790 5790 5791 5791 5792 5792 5793 5795 5796
5688 5691 5693 5695 5698 5700 5703 5705 5707 5709 5711 5713 5714 5716 5717 5719 5721 5722 5724 5726 5727 5728 5730 5731 5732 5734 5736 5738 5740 5742 5744 5745 5747 5749 5751 5753 5755 5756 5758 5759 5761 5762 5764 5765 5766 5767 5768 5769 5770 5771 5772 5773 5774 5775 5776 5776 5777 5777 5778 5778 5778 5779 5780 5780 5781 5781 5782 5782 5782 5782 5781 5782 5782 5784 5786 5784 5785 5788 5787 5788 5788 5788 5789 5789 5791 5792 5793 5794
5684 5687 5689 5692 5694 5697 5699 5701 5703 5705 5707 5709 5711 5713 5714 5716 5717 5719 5721 5723 5724 5725 5727 5728 5730 5731 5733 5735 5737 5739 5741 5743 5744 5746 5748 5750 5752 5753 5755 5757 5758 5760 5761 5762 5764 5765 5766 5767 5768 5769 5770 5771 5771 5772 5773 5774 5775 5775 5776 5776 5776 5778 5778 5778 5778 5779 5780 5779 5779 5780 5779 5780 5780 5782 5783 5780 5782 5786 5785 5785 5785 5785 5786 5787 5789 5790 5790 5793
5680 5683 5686 5688 5691 5693 5696 5698 5700 5702 5704 5706 5708 5709 5711 5712 5714 5716 5718 5719 5721 5722 5724 5725 5727 5729 5730 5732 5734 5736 5738 5740 5741 5743 5745 5747 5749 5750 5752 5754 5755 5757 5758 5759 5761 5762 5763 5764 5765 5766 5767 5768 5769 5770 5771 5772 5773 5773 5774 5774 5775 5777 5776 5775 5776 5777 5777 5776 5777 5778 5778 5780 5781 5782 5779 5776 5780 5784 5783 5782 5782 5783 5784 5786 5786 5787 5789 5791
5677 5679 5682 5685 5687 5690 5692 5695 5697 5699 5701 5703 5705 5706 5708 5709 5711 5712 5714 5716 5718 5719 5721 5722 5724 5726 5727 5729 5732 5733 5735 5737 5738 5740 5742 5744 5746 5747 5749 5751 5753 5754 5755 5757 5758 5759 5761 5762 5763 5764 5765 5766 5767 5768 5769 5769 5770 5771 5772 5773 5774 5776 5775 5772 5774 5776 5773 5773 5775 5776 5777 5780 5785 5784 5776 5773 5778 5781 5781 5780 5780 5780 5781 5783 5784 5784 5787 5789
5673 5676 5678 5681 5684 5687 5689 5692 5694 5696 5698 5700 5702 5703 5704 5706 5707 5709 5710 5712 5714 5716 5717 5719 5721 5723 5724 5726 5729 5731 5732 5734 5736 5737 5739 5741 5743 5745 5747 5749 5750 5751 5753 5754 5756 5757 5758 5759 5760 5761 5762 5764 5765 5765 5767 5767 5768 5769 5771 5772 5772 5775 5775 5771 5771 5773 5771 5771 5773 5774 5775 5778 5785 5786 5775 5772 5777 5778 5779 5779 5777 5779 5779 5780 5781 5783 5785 5787
5669 5672 5675 5678 5681 5683 5686 5688 5691 5693 5695 5697 5699 5700 5702 5703 5704 5706 5707 5709 5710 5712 5714 5715 5717 5719 5721 5723 5726 5727 5729 5731 5733 5735 5736 5738 5740 5742 5744 5746 5747 5748 5750 5751 5753 5754 5755 5757 5758 5759 5760 5761 5762 5763 5765 5766 5767 5767 5768 5770 5771 5772 5774 5772 5769 5769 5769 5770 5770 5771 5773 5776 5782 5784 5773 5770 5775 5776 5777 5777 5775 5776 5777 5777 5779 5780 5783 5784
5665 5668 5671 5674 5677 5680 5683 5685 5688 5690 5692 5694 5696 5697 5699 5700 5701 5703 5704 5705 5707 5709 5710 5711 5714 5716 5717 5719 5721 5724 5727 5728 5729 5732 5733 5735 5737 5739 5741 5743 5744 5746 5747 5748 5750 5751 5752 5754 5755 5756 5757 5758 5760 5761 5763 5765 5766 5767 5765 5766 5769 5769 5770 5772 5767 5765 5767 5769 5769 5769 5771 5773 5777 5777 5770 5768 5772 5774 5775 5775 5772 5772 5775 5776 5776 5777 5779 5781
5662 5665 5668 5671 5674 5677 5679 5682 5684 5687 5689 5691 5693 5695 5696 5697 5698 5699 5700 5702 5704 5705 5706 5708 5711 5712 5713 5715 5718 5721 5724 5725 5726 5728 5730 5732 5733 5735 5738 5739 5741 5743 5744 5746 5747 5748 5749 5750 5751 5752 5754 5757 5758 5758 5761 5763 5763 5765 5765 5764 5766 5767 5768 5769 5765 5762 5765 5767 5767 5767 5769 5770 5771 5772 5770 5767 5768 5771 5772 5771 5769 5770 5772 5774 5774 5774 5776 5778
5659 5662 5665 5668 5671 5674 5676 5679 5681 5683 5686 5688 5690 5692 5693 5694 5695 5696 5698 5699 5700 5702 5703 5706 5708 5709 5710 5712 5715 5718 5720 5722 5723 5724 5726 5729 5731 5732 5734 5736 5738 5740 5741 5742 5743 5745 5746 5747 5748 5750 5752 5754 5754 5755 5757 5758 5757 5760 5762 5762 5763 5764 5766 5766 5761 5759 5762 5764 5765 5765 5765 5767 5767 5770 5771 5767 5764 5767 5769 5768 5767 5769 5770 5771 5770 5771 5773 5776
5656 5659 5662 5665 5668 5671 5673 5676 5678 5680 5683 5685 5687 5689 5690 5692 5692 5693 5695 5696 5697 5699 5701 5703 5705 5705 5706 5709 5712 5714 5716 5718 5720 5721 5723 5725 5727 5729 5731 5733 5735 5737 5738 5738 5739 5742 5743 5744 5746 5748 5749 5750 5750 5751 5752 5752 5754 5757 5758 5759 5760 5761 5763 5764 5759 5757 5759 5761 5762 5762 5762 5764 5764 5765 5767 5767 5763 5763 5766 5766 5766 5768 5769 5769 5768 5768 5770 5774
5653 5656 5659 5662 5665 5668 5670 5672 5675 5677 5680 5682 5684 5686 5687 5689 5689 5691 5692 5693 5695 5696 5698 5700 5701 5702 5704 5706 5709 5710 5712 5715 5717 5719 5721 5722 5724 5726 5728 5730 5732 5733 5734 5734 5737 5740 5740 5741 5744 5745 5745 5745 5746 5748 5749 5750 5752 5754 5754 5756 5758 5758 5761 5763 5757 5755 5756 5757 5759 5759 5759 5760 5761 5761 5763 5764 5762 5760 5764 5764 5764 5766 5766 5768 5767 5765 5766 5770
5650 5653 5657 5660 5662 5665 5667 5669 5672 5674 5677 5679 5681 5683 5684 5686 5687 5688 5689 5690 5692 5693 5695 5697 5698 5700 5701 5703 5705 5707 5710 5713 5714 5717 5718 5719 5720 5722 5725 5727 5729 5730 5730 5732 5735 5736 5737 5739 5741 5741 5741 5742 5745 5746 5747 5748 5749 5750 5751 5753 5754 5756 5760 5760 5756 5752 5753 5755 5756 5756 5756 5757 5758 5759 5760 5761 5759 5759 5762 5762 5763 5764 5763 5766 5767 5763 5763 5768
5647 5651 5654 5657 5660 5662 5664 5667 5669 5671 5673 5676 5678 5680 5681 5683 5684 5685 5687 5688 5689 5691 5692 5694 5696 5697 5698 5701 5703 5705 5708 5709 5711 5713 5716 5717 5717 5719 5722 5724 5725 5725 5727 5730 5732 5733 5735 5736 5736 5737 5739 5741 5742 5742 5743 5745 5746 5747 5748 5750 5751 5753 5757 5756 5753 5750 5750 5753 5754 5754 5754 5754 5756 5757 5757 5759 5758 5757 5760 5760 5761 5762 5762 5764 5765 5762 5761 5766
5645 5648 5651 5654 5657 5659 5662 5664 5666 5668 5671 5673 5674 5676 5678 5680 5681 5682 5684 5685 5686 5688 5690 5691 5693 5694 5696 5699 5700 5702 5704 5707 5708 5710 5713 5714 5715 5717 5719 5720 5722 5723 5725 5728 5728 5730 5732 5731 5732 5735 5737 5737 5738 5739 5741 5743 5744 5744 5745 5747 5748 5749 5751 5750 5749 5748 5749 5752 5753 5752 5752 5753 5754 5755 5755 5756 5755 5755 5757 5758 5758 5760 5760 5761 5762 5762 5759 5761
5643 5646 5648 5651 5654 5656 5659 5661 5663 5666 5668 5670 5671 5673 5675 5677 5678 5680 5682 5683 5683 5685 5687 5689 5690 5692 5694 5696 5698 5700 5701 5704 5706 5707 5710 5712 5712 5714 5716 5717 5719 5721 5722 5725 5725 5727 5729 5727 5730 5733 5733 5734 5735 5736 5738 5740 5741 5742 5743 5744 5744 5745 5746 5745 5746 5747 5748 5751 5751 5749 5749 5751 5753 5754 5754 5753 5753 5754 5754 5755 5756 5758 5758 5758 5760 5760 5756 5756
5641 5643 5646 5648 5651 5654 5656 5658 5661 5663 5665 5667 5668 5670 5672 5674 5676 5677 5679 5681 5680 5681 5684 5686 5687 5690 5691 5693 5695 5697 5698 5701 5703 5704 5707 5710 5709 5711 5713 5714 5717 5718 5719 5721 5721 5724 5725 5725 5727 5729 5729 5731 5733 5733 5736 5737 5738 5740 5741 5740 5740 5742 5743 5743 5745 5745 5746 5749 5748 5746 5747 5749 5750 5753 5753 5750 5751 5753 5751 5752 5754 5755 5755 5755 5757 5758 5755 5752
5638 5641 5643 5645 5648 5651 5653 5655 5657 5659 5662 5664 5665 5667 5669 5671 5673 5675 5677 5678 5677 5678 5682 5684 5685 5687 5689 5690 5693 5694 5696 5699 5701 5701 5704 5706 5706 5708 5711 5712 5714 5716 5716 5717 5719 5721 5722 5723 5724 5726 5727 5728 5729 5731 5733 5733 5735 5737 5737 5736 5738 5740 5740 5741 5743 5744 5745 5746 5746 5745 5745 5746 5746 5749 5750 5748 5748 5749 5750 5750 5752 5752 5752 5753 5754 5755 5754 5750
5636 5638 5640 5643 5645 5648 5650 5652 5654 5656 5659 5661 5663 5664 5666 5668 5670 5672 5674 5675 5674 5676 5679 5681 5683 5685 5686 5688 5690 5691 5694 5696 5697 5698 5701 5703 5704 5706 5708 5709 5712 5713 5713 5714 5718 5719 5718 5719 5722 5722 5724 5725 5727 5729 5729 5730 5733 5734 5732 5734 5737 5737 5738 5740 5741 5742 5743 5742 5742 5743 5744 5743 5743 5747 5748 5747 5745 5745 5748 5748 5748 5748 5747 5749 5750 5750 5752 5749
5633 5636 5638 5640 5642 5645 5647 5649 5651 5654 5656 5658 5660 5661 5664 5666 5668 5670 5671 5672 5673 5674 5676 5678 5680 5683 5684 5686 5687 5689 5691 5692 5694 5697 5699 5700 5701 5703 5705 5706 5709 5710 5710 5711 5715 5715 5714 5717 5719 5720 5722 5723 5725 5726 5726 5728 5730 5730 5730 5733 5735 5736 5737 5738 5739 5741 5740 5738 5739 5741 5742 5741 5741 5744 5746 5745 5742 5741 5743 5742 5743 5744 5743 5745 5747 5748 5750 5747
5631 5633 5635 5638 5640 5642 5645 5646 5649 5651 5653 5655 5657 5659 5661 5663 5665 5667 5668 5670 5671 5672 5674 5676 5677 5680 5682 5684 5684 5686 5688 5690 5692 5695 5696 5697 5698 5700 5701 5703 5705 5707 5707 5708 5711 5712 5712 5715 5717 5718 5720 5721 5722 5724 5724 5726 5728 5728 5730 5732 5734 5734 5735 5736 5737 5737 5736 5736 5738 5739 5741 5740 5738 5741 5742 5740 5738 5739 5739 5739 5740 5742 5742 5743 5744 5745 5747 5743
5628 5631 5633 5635 5637 5640 5642 5644 5646 5648 5650 5652 5654 5656 5658 5660 5663 5664 5666 5669 5669 5669 5670 5672 5674 5678 5680 5681 5682 5684 5686 5687 5689 5692 5693 5694 5696 5697 5699 5701 5703 5704 5705 5707 5709 5710 5710 5712 5714 5715 5717 5718 5720 5721 5721 5723 5725 5726 5728 5730 5731 5733 5733 5733 5734 5734 5734 5736 5737 5737 5738 5737 5737 5739 5737 5734 5734 5735 5737 5737 5738 5739 5740 5741 5741 5742 5742 5739
5627 5629 5631 5633 5635 5637 5639 5641 5643 5645 5647 5649 5651 5653 5656 5657 5660 5662 5665 5666 5665 5665 5668 5670 5672 5675 5677 5680 5681 5681 5684 5685 5686 5689 5690 5692 5693 5695 5697 5698 5700 5702 5704 5706 5707 5708 5709 5710 5711 5712 5714 5715 5717 5719 5719 5721 5723 5724 5726 5727 5729 5730 5731 5731 5732 5733 5733 5734 5734 5734 5734 5734 5735 5735 5732 5729 5731 5734 5736 5736 5735 5736 5736 5736 5737 5738 5739 5737
5625 5627 5629 5631 5633 5635 5637 5639 5641 5643 5645 5647 5649 5651 5653 5655 5658 5660 5662 5662 5661 5663 5666 5667 5670 5673 5675 5678 5678 5678 5681 5682 5684 5686 5687 5689 5690 5692 5693 5695 5696 5699 5702 5703 5704 5706 5707 5708 5708 5710 5711 5713 5715 5717 5718 5719 5721 5722 5724 5726 5727 5728 5729 5730 5731 5731 5731 5732 5732 5731 5731 5732 5733 5731 5729 5728 5730 5732 5733 5733 5733 5733 5732 5733 5734 5735 5735 5734
5623 5626 5627 5629 5631 5633 5635 5636 5638 5641 5643 5644 5646 5648 5651 5653 5655 5657 5657 5657 5658 5661 5663 5665 5668 5670 5673 5674 5675 5676 5679 5680 5681 5683 5684 5686 5688 5689 5691 5693 5694 5697 5699 5701 5702 5704 5705 5705 5706 5707 5709 5710 5713 5715 5716 5718 5719 5720 5721 5723 5724 5725 5727 5728 5728 5728 5729 5730 5729 5729 5729 5730 5729 5728 5727 5728 5728 5728 5729 5730 5730 5731 5731 5731 5732 5732 5732 5732
5622 5624 5625 5627 5629 5631 5633 5635 5636 5639 5640 5642 5644 5646 5648 5650 5651 5652 5653 5655 5657 5659 5661 5664 5666 5667 5670 5671 5672 5674 5676 5678 5679 5680 5682 5684 5685 5687 5689 5690 5692 5695 5697 5698 5701 5702 5703 5704 5704 5705 5706 5708 5711 5712 5713 5715 5717 5717 5719 5720 5722 5724 5726 5726 5726 5726 5727 5727 5727 5728 5728 5727 5726 5726 5726 5726 5726 5725 5726 5727 5728 5728 5730 5730 5730 5730 5730 5730
5620 5622 5624 5625 5627 5629 5631 5633 5635 5637 5638 5640 5642 5644 5645 5646 5647 5649 5651 5653 5655 5657 5659 5662 5662 5664 5668 5670 5670 5672 5674 5675 5677 5678 5680 5682 5684 5685 5687 5688 5690 5692 5694 5696 5698 5699 5700 5701 5701 5702 5704 5706 5708 5709 5710 5712 5714 5714 5716 5719 5721 5723 5723 5723 5723 5724 5725 5725 5725 5726 5726 5726 5724 5722 5723 5724 5724 5724 5723 5725 5726 5726 5727 5728 5728 5727 5727 5728
5618 5620 5622 5624 5626 5628 5629 5631 5633 5635 5636 5638 5640 5641 5642 5644 5645 5647 5649 5651 5652 5654 5657 5658 5658 5660 5664 5667 5669 5670 5671 5673 5675 5676 5679 5680 5681 5683 5685 5687 5688 5689 5692 5693 5695 5696 5697 5699 5699 5700 5703 5704 5705 5707 5708 5709 5711 5712 5714 5716 5718 5720 5720 5720 5721 5722 5722 5723 5723 5724 5725 5723 5720 5719 5721 5722 5722 5722 5722 5723 5724 5724 5724 5726 5727 5726 5725 5726
5617 5619 5620 5622 5624 5626 5627 5629 5631 5632 5634 5636 5637 5639 5640 5641 5643 5645 5646 5648 5650 5652 5653 5654 5655 5658 5661 5664 5666 5666 5668 5671 5673 5675 5677 5678 5678 5680 5682 5684 5685 5686 5688 5690 5692 5693 5695 5697 5697 5698 5701 5701 5702 5705 5706 5707 5709 5711 5712 5713 5715 5716 5717 5718 5718 5719 5720 5721 5721 5722 5722 5719 5718 5718 5720 5720 5720 5720 5720 5721 5722 5722 5723 5724 5726 5725 5724 5726
5615 5617 5619 5621 5622 5624 5626 5627 5629 5630 5632 5633 5635 5636 5637 5639 5641 5642 5644 5645 5647 5648 5649 5651 5653 5656 5658 5660 5662 5663 5665 5668 5670 5671 5673 5675 5676 5677 5678 5680 5681 5683 5685 5687 5689 5690 5692 5695 5696 5696 5697 5698 5699 5702 5704 5705 5707 5709 5710 5712 5713 5714 5715 5716 5716 5716 5717 5718 5719 5720 5719 5716 5716 5717 5718 5718 5718 5718 5718 5718 5720 5721 5722 5723 5724 5723 5724 5726
5614 5616 5617 5619 5621 5622 5624 5626 5627 5629 5630 5631 5632 5634 5635 5637 5638 5640 5641 5643 5644 5645 5647 5649 5651 5652 5654 5657 5659 5661 5662 5665 5667 5669 5670 5672 5673 5674 5675 5677 5679 5681 5682 5684 5686 5687 5689 5692 5694 5694 5694 5696 5698 5700 5702 5703 5704 5706 5708 5710 5711 5712 5713 5713 5713 5714 5715 5715 5716 5717 5715 5713 5714 5715 5715 5715 5716 5716 5716 5717 5719 5721 5722 5722 5723 5723 5724 5725
5613 5615 5616 5618 5619 5621 5622 5624 5626 5627 5628 5629 5630 5631 5633 5634 5636 5637 5639 5640 5642 5643 5645 5647 5648 5650 5652 5654 5657 5658 5660 5662 5665 5666 5668 5669 5668 5669 5671 5675 5677 5678 5680 5682 5683 5685 5686 5689 5691 5692 5693 5695 5696 5697 5698 5700 5701 5703 5705 5707 5708 5709 5710 5710 5710 5711 5712 5712 5714 5714 5713 5712 5713 5713 5713 5714 5715 5715 5715 5716 5718 5720 5721 5721 5722 5722 5723 5724
5612 5614 5615 5616 5618 5619 5621 5623 5624 5625 5626 5627 5628 5630 5631 5632 5634 5635 5637 5638 5639 5641 5642 5644 5645 5647 5649 5651 5653 5656 5657 5659 5661 5663 5665 5665 5665 5666 5669 5672 5674 5676 5678 5680 5680 5681 5683 5686 5688 5690 5691 5692 5692 5693 5695 5697 5699 5700 5702 5704 5705 5705 5706 5707 5707 5708 5708 5709 5711 5712 5710 5710 5712 5712 5713 5713 5714 5714 5714 5715 5717 5718 5719 5720 5721 5721 5722 5724
5611 5612 5613 5615 5616 5618 5619 5621 5623 5624 5625 5625 5627 5628 5629 5630 5632 5633 5634 5636 5637 5638 5640 5641 5643 5644 5646 5648 5650 5652 5654 5656 5658 5660 5662 5662 5663 5664 5666 5668 5671 5673 5674 5675 5676 5679 5682 5684 5685 5687 5688 5690 5690 5690 5692 5694 5696 5698 5699 5700 5701 5702 5703 5704 5704 5705 5706 5708 5710 5709 5707 5707 5710 5711 5712 5712 5713 5713 5713 5714 5715 5717 5718 5719 5719 5720 5721 5723
5610 5611 5612 5613 5615 5616 5618 5620 5621 5622 5623 5624 5625 5626 5627 5629 5630 5631 5632 5633 5634 5636 5637 5639 5640 5642 5643 5645 5647 5649 5652 5653 5655 5657 5659 5660 5660 5662 5664 5666 5668 5669 5670 5673 5675 5678 5680 5681 5682 5684 5685 5686 5687 5687 5688 5690 5692 5694 5695 5695 5696 5699 5700 5701 5701 5702 5703 5705 5707 5706 5704 5705 5708 5709 5710 5711 5712 5712 5712 5712 5714 5715 5716 5717 5718 5719 5720 5721
5609 5610 5611 5612 5614 5615 5617 5618 5619 5620 5621 5622 5623 5624 5626 5627 5628 5629 5631 5631 5632 5634 5635 5637 5638 5639 5641 5642 5644 5647 5649 5651 5653 5655 5657 5658 5658 5658 5660 5662 5664 5666 5669 5671 5672 5675 5677 5677 5679 5681 5681 5682 5683 5684 5685 5687 5689 5691 5690 5691 5694 5696 5697 5698 5699 5699 5700 5702 5703 5702 5702 5704 5707 5708 5709 5710 5711 5711 5711 5712 5712 5713 5714 5715 5717 5717 5718 5719
5607 5608 5610 5611 5613 5614 5615 5617 5617 5618 5619 5620 5621 5623 5624 5625 5626 5627 5629 5629 5630 5632 5633 5634 5635 5637 5638 5640 5641 5644 5646 5648 5650 5652 5654 5655 5654 5654 5657 5659 5661 5663 5666 5667 5669 5671 5672 5673 5675 5678 5678 5679 5680 5682 5684 5686 5687 5688 5687 5688 5690 5692 5693 5694 5695 5696 5697 5699 5699 5700 5701 5703 5705 5707 5708 5708 5709 5710 5710 5711 5711 5712 5713 5714 5715 5716 5717 5717
5605 5607 5608 5610 5611 5613 5614 5615 5616 5617 5618 5619 5620 5621 5622 5623 5624 5625 5626 5627 5628 5629 5630 5632 5633 5634 5636 5637 5639 5641 5643 5645 5647 5648 5650 5650 5650 5652 5654 5656 5658 5660 5662 5664 5666 5667 5668 5670 5673 5674 5675 5676 5678 5680 5682 5683 5684 5684 5685 5685 5687 5688 5689 5690 5691 5692 5694 5695 5695 5697 5700 5701 5703 5705 5706 5707 5708 5709 5709 5710 5710 5711 5711 5712 5713 5714 5715 5715
5604 5606 5607 5609 5610 5611 5612 5614 5615 5616 5617 5618 5619 5620 5621 5622 5622 5623 5624 5625 5626 5627 5628 5629 5631 5632 5633 5634 5636 5637 5639 5641 5643 5644 5646 5646 5648 5650 5651 5652 5655 5657 5659 5661 5664 5665 5667 5668 5670 5671 5672 5674 5675 5677 5679 5680 5680 5681 5682 5683 5684 5685 5686 5688 5689 5690 5691 5691 5693 5695 5698 5700 5701 5702 5703 5705 5706 5707 5707 5708 5709 5709 5710 5711 5711 5712 5712 5713
5603 5605 5606 5608 5609 5610 5611 5613 5614 5614 5615 5616 5617 5618 5619 5620 5620 5621 5622 5623 5623 5624 5625 5627 5628 5629 5630 5632 5633 5634 5636 5637 5639 5641 5642 5643 5645 5646 5647 5648 5652 5654 5656 5658 5661 5663 5665 5665 5667 5669 5670 5671 5673 5674 5675 5677 5676 5677 5679 5681 5682 5683 5684 5685 5687 5688 5688 5688 5691 5693 5695 5697 5699 5700 5701 5703 5704 5705 5706 5707 5707 5708 5708 5709 5710 5710 5710 5711
5602 5604 5605 5607 5608 5609 5610 5612 5613 5613 5614 5615 5616 5617 5617 5618 5619 5619 5620 5621 5621 5622 5622 5624 5626 5627 5628 5629 5630 5632 5633 5634 5636 5638 5639 5640 5642 5643 5644 5647 5649 5651 5653 5655 5657 5660 5661 5663 5665 5666 5666 5668 5670 5671 5673 5673 5673 5674 5676 5678 5678 5680 5681 5683 5685 5686 5685 5686 5688 5690 5692 5694 5696 5697 5699 5701 5702 5703 5704 5705 5705 5706 5707 5707 5708 5708 5708 5709
5601 5603 5604 5605 5607 5608 5610 5611 5612 5612 5613 5614 5614 5615 5616 5616 5617 5617 5618 5618 5619 5620 5621 5622 5623 5624 5625 5626 5627 5628 5630 5632 5633 5635 5636 5638 5639 5641 5642 5644 5646 5648 5650 5652 5654 5656 5658 5660 5661 5662 5663 5665 5666 5668 5669 5670 5670 5670 5672 5674 5675 5676 5678 5680 5682 5683 5683 5684 5685 5687 5689 5691 5693 5695 5696 5698 5699 5701 5702 5702 5703 5704 5705 5705 5705 5706 5706 5707